Location: Dal�� Lhota
(48.7500°N, 14.0167°E)
Time: 23:20:49
(UTC+00:00)

Lacrosse 4 Rocket - Pass Details

Date: 24 September 2020
Orbit: 543 x 615 km, 68.0° (Epoch: 25 October)

Event Time Altitude Azimuth Distance (km) Brightness Sun altitude
Rises 19:48:00 0° 325° (NW) 2,720 5.9 -27.5°
Reaches altitude 10° 19:50:11 10° 324° (NW) 1,827 4.8 -27.8°
Enters shadow 19:52:48 38° 318° (NW) 848 2.7 -28.2°
